Volver al catálogo

COSMOS 970 DEB

ActivoLEO
NORAD 10562·DEBRIS·🇷🇺 Russia

Lanzado Dec 21, 1977 desde Baikonur Cosmodrome

Loading…

Próximos Pases (próximas 24 horas)

TLE

ActualizadoSource: Space-Track

Época: Sep 13, 2026, 21:25 UTC

1 10562U 77121D   26256.89245696  .00000045  00000-0  22135-3 0  9997
2 10562  65.8690  64.1672 0085410  39.3200 125.1010 13.36819846373362

Sigue COSMOS 970 DEB en tiempo real con AllMySat

Download on the App Store